Regional Weather Roundup
Issued by NWS

Home | Current Version | Previous Version | Text Only | Print | Product List | Glossary Off
Versions: 1 2 3 4 5 6 7 8 9 10 11 12 13 14 15 16 17 18 19 20 21 22 23 24 25 26 27 28 29 30 31 32 33 34 35 36 37 38 39 40 41 42 43 44 45 46 47 48 49 50

000
ASUS44 KMEG 302010
RWRTN
TENNESSEE HOURLY STATE WEATHER ROUNDUP
NATIONAL WEATHER SERVICE MEMPHIS TN
300 PM CDT MON MAY 30 2016

TNZ002-004-019-021-049-052-054-088>092-302100-
WEST TENNESSEE

CITY           SKY/WX    TMP DP  RH WIND       PRES   REMARKS
MEMPHIS INTL   MOSUNNY   89  62  40 VRB6      30.01F
NWS MEMPHIS      N/A     87 N/A N/A MISG        N/A
JACKSON        MOSUNNY   89  58  34 E10       30.01F
DYERSBURG      MOSUNNY   86  59  39 NE6       30.00F
UNION CITY     SUNNY     86  61  42 CALM      30.01F
PARIS          MOSUNNY   84  61  45 VRB3      30.03F
LEXINGTON      SUNNY     84  55  37 VRB3      30.01F
$$

TNZ008-025-027-028-033-062-065-066-302100-
NORTH MIDDLE TENNESSEE

CITY           SKY/WX    TMP DP  RH WIND       PRES   REMARKS
NASHVILLE      MOSUNNY   86  54  33 N9        30.02F
CLARKSVILLE    SUNNY     86  60  41 NW10      30.02F
SMYRNA         MOSUNNY   89  59  36 N9G16     30.02F
COOKEVILLE     SUNNY     86  63  45 VRB7      30.01F
CROSSVILLE     MOSUNNY   82  57  42 N8        30.06S
$$

TNZ061-075-076-078-094-096-097-302100-
SOUTH MIDDLE TENNESSEE

CITY           SKY/WX    TMP DP  RH WIND       PRES   REMARKS
FAYETTEVILLE   MOSUNNY   86  61  42 N10       30.00F
TULLAHOMA      SUNNY     84  57  39 N8        30.03F
WINCHESTER     MOSUNNY   88  61  40 NW13      30.00F
MCMINNVILLE    SUNNY     86  61  42 N9        30.02F
COLUMBIA       SUNNY     88  59  37 NW7       30.00F
SHELBYVILLE    SUNNY     88  61  40 N10       30.02F
$$

TNZ017-018-042-046-047-302100-
NORTHEAST TENNESSEE

CITY           SKY/WX    TMP DP  RH WIND       PRES   REMARKS
TRI CITIES     PTSUNNY   79  61  53 NW14      30.00F
$$

TNZ012-013-036-069-073-074-302100-
CENTRAL EAST TENNESSEE

CITY           SKY/WX    TMP DP  RH WIND       PRES   REMARKS
KNOXVILLE      NOT AVBL
OAK RIDGE      MOSUNNY   85  62  46 SE5       29.99F
GATLINBURG     SUNNY     86  59  39 VRB6      29.97F
$$

TNZ083-085-099-302100-
SOUTHEAST TENNESSEE

CITY           SKY/WX    TMP DP  RH WIND       PRES   REMARKS
CHATTANOOGA    LGT RAIN  85  64  49 SE5       29.96F
$$

SKY/WX REPORTED AS FAIR MEANS FEW OR NO CLOUDS BELOW
12 THOUSAND FEET.





USA.gov is the U.S. government's official web portal to all federal, state and local government web resources and services.